SKYNET 5D

Last updated on Sept. 28, 2020, 5:45 a.m. UTC

1 39034U 12075A   20271.76438361  .00000077  00000-0  00000+0 0  9997
2 39034   0.0741   0.2511 0003769 183.3303 151.3688  1.00269566 28577
UTC
Height (km)
Latitude
Longitude
Inclination
Orbital Period
UTC large
Height (km)
Speed (km/s)
/
Latitude / Longitude
Inclination (degrees)
Orbital Period (minutes)
Azimuth
Elevation
Range (km)
Doppler Factor
iOS Compass Heading
iOS Angle

Next 30 passes for location: Hong Kong

Rise time Rise Azimuth (degrees) Set time Set Azimuth (degrees) Duration Max altitude (degrees)

No matching passes for this satellites